Weather History for Eau Claire, WI

Change the Weather History Date:

Friday, March 15, 2013

  Actual Average Record
Temperature  
Mean Temperature 30 °F 31 °F  
Max Temperature 34 °F 40 °F 70 °F (1927)
Min Temperature 25 °F 21 °F -9 °F (1956)
Degree Days  
Heating Degree Days 35 34  
Month to date heating degree days 610 559  
Since 1 July heating degree days 6469 6580  
Cooling Degree Days 0 0  
Month to date cooling degree days 0 0  
Year to date cooling degree days 0 0  
Moisture  
Dew Point 26 °F    
Average Humidity 81    
Maximum Humidity 92    
Minimum Humidity 69    
Precipitation  
Precipitation 0.28 in 0.05 in 1.03 in (1919)
Month to date precipitation 1.77 0.66  
Year to date precipitation 4.38 2.36  
Snow  
Snow 4.10 in 0.30 in 4.20 in (1974)
Month to date snowfall 19.7 4.7  
Since 1 July snowfall 61.6 41.0  
Snow Depth 12.00 in    
Sea Level Pressure  
Sea Level Pressure 29.90 in    
Wind  
Wind Speed 6 mph (NE)    
Max Wind Speed 14 mph    
Max Gust Speed 18 mph    
Visibility 3 miles    
Events Fog , Snow    
T = Trace of Precipitation, MM = Missing Value Source: NWS Daily Summary

Daily Weather History Graph

Daily Weather History Graph

Search for Another Location

Airport:

Trip Planner

Search our weather history database for the weather conditions in past years. The results will help you decide how hot, cold, wet, or windy it might be!

Date:

Astronomy

Mar. 15, 2013 Rise Set
Actual Time 7:17 AM CDT 7:12 PM CDT
Civil Twilight 6:48 AM CDT 7:41 PM CDT
Nautical Twilight 6:14 AM CDT 8:15 PM CDT
Astronomical Twilight 5:40 AM CDT 8:50 PM CDT
Moon 8:57 AM CDT (3/15) 11:39 PM CDT (3/15)
Length of Visible Light 12h 52m
Length of Day
11h 54m
Waxing Crescent, 15% of the Moon is Illuminated
Mar 15
Waxing Crescent
Mar 19
First Quarter
Mar 27
Full
Apr 2
Last Quarter
Apr 10
New

Hourly Weather History & Observations

Time (CDT) Temp. Windchill Dew Point Humidity Pressure Visibility Wind Dir Wind Speed Gust Speed Precip Events Conditions
12:56 AM 25.0 °F 19.3 °F 21.9 °F 88% 30.02 in 7.0 mi SSW 4.6 mph - N/A   Clear
1:56 AM 27.0 °F - 23.0 °F 85% 30.00 in 7.0 mi Calm Calm - N/A   Clear
2:56 AM 26.1 °F - 23.0 °F 88% 29.98 in 6.0 mi Calm Calm - N/A   Clear
3:56 AM 27.0 °F - 23.0 °F 85% 29.97 in 6.0 mi Calm Calm - N/A   Partly Cloudy
4:56 AM 28.0 °F - 24.1 °F 85% 29.96 in 7.0 mi Calm Calm - N/A   Overcast
5:56 AM 28.0 °F 22.8 °F 24.1 °F 85% 29.97 in 6.0 mi WSW 4.6 mph - 0.00 in   Overcast
6:34 AM 28.4 °F 24.6 °F 24.8 °F 86% 29.94 in 2.0 mi West 3.5 mph - 0.00 in Snow Light Snow
6:49 AM 28.4 °F - 24.8 °F 86% 29.94 in 1.5 mi Calm Calm - 0.01 in Snow Light Snow
6:56 AM 28.0 °F - 26.1 °F 92% 29.97 in 1.5 mi Calm Calm - 0.01 in Snow Light Snow
7:38 AM 28.4 °F - 26.6 °F 93% 29.93 in 0.8 mi Calm Calm - 0.02 in Snow Light Snow
7:56 AM 28.0 °F - 27.0 °F 96% 29.96 in 0.5 mi Calm Calm - 0.03 in Fog , Snow Light Snow
8:32 AM 28.4 °F - 26.6 °F 93% 29.92 in 1.0 mi Calm Calm - 0.01 in Snow Light Snow
8:49 AM 30.2 °F - 26.6 °F 86% 29.92 in 0.8 mi Calm Calm - 0.01 in Snow Light Snow
8:56 AM 30.0 °F - 27.0 °F 88% 29.95 in 1.0 mi Calm Calm - 0.02 in Snow Light Snow
9:14 AM 30.2 °F 26.7 °F 26.6 °F 86% 29.92 in 1.2 mi NNE 3.5 mph - 0.00 in Snow Light Snow
9:56 AM 30.9 °F 25.2 °F 28.0 °F 89% 29.95 in 1.0 mi NNE 5.8 mph - 0.01 in Snow Light Snow
10:11 AM 30.2 °F 21.9 °F 28.4 °F 93% 29.92 in 1.2 mi NE 9.2 mph - 0.00 in Snow Light Snow
10:38 AM 30.2 °F 23.4 °F 28.4 °F 93% 29.92 in 1.0 mi NE 6.9 mph - 0.01 in Snow Light Snow
10:56 AM 32.0 °F 24.2 °F 28.0 °F 85% 29.96 in 1.5 mi NE 9.2 mph - 0.01 in Snow Light Snow
11:04 AM 32.0 °F 23.6 °F 28.4 °F 87% 29.92 in 1.8 mi NE 10.4 mph - 0.00 in Snow Light Snow
11:09 AM 32.0 °F 23.6 °F 28.4 °F 87% 29.92 in 2.0 mi NE 10.4 mph - 0.00 in Snow Light Snow
11:24 AM 32.0 °F 24.2 °F 28.4 °F 87% 29.92 in 1.2 mi NE 9.2 mph - 0.00 in Snow Light Snow
11:36 AM 33.8 °F 26.4 °F 28.4 °F 81% 29.92 in 3.0 mi ENE 9.2 mph - 0.00 in Snow Light Snow
11:56 AM 33.1 °F 24.4 °F 27.0 °F 78% 29.95 in 7.0 mi ENE 11.5 mph - 0.00 in   Overcast
12:56 PM 34.0 °F 26.0 °F 28.0 °F 79% 29.94 in 10.0 mi ENE 10.4 mph - 0.00 in   Overcast
1:56 PM 34.0 °F 26.6 °F 26.1 °F 73% 29.92 in 10.0 mi NE 9.2 mph - N/A   Overcast
2:56 PM 34.0 °F 27.2 °F 26.1 °F 73% 29.91 in 10.0 mi NE 8.1 mph - 0.00 in   Overcast
3:56 PM 33.1 °F 24.9 °F 25.0 °F 72% 29.89 in 10.0 mi NE 10.4 mph - N/A   Overcast
4:56 PM 33.1 °F 25.5 °F 26.1 °F 75% 29.88 in 10.0 mi NE 9.2 mph - N/A   Overcast
5:16 PM 33.8 °F 26.4 °F 26.6 °F 75% 29.85 in 10.0 mi ENE 9.2 mph - N/A   Overcast
5:52 PM 32.0 °F 23.6 °F 26.6 °F 80% 29.83 in 10.0 mi ENE 10.4 mph - N/A   Overcast
5:56 PM 32.0 °F 23.6 °F 26.1 °F 79% 29.87 in 10.0 mi ENE 10.4 mph - N/A   Overcast
6:39 PM 32.0 °F 24.8 °F 26.6 °F 80% 29.84 in 1.8 mi ENE 8.1 mph - 0.00 in Snow Light Snow
6:56 PM 30.9 °F 25.2 °F 27.0 °F 85% 29.87 in 1.8 mi NE 5.8 mph - 0.01 in Snow Light Snow
7:04 PM 30.2 °F 24.3 °F 28.4 °F 93% 29.84 in 2.0 mi ENE 5.8 mph - 0.00 in Snow Light Snow
7:13 PM 30.2 °F 24.3 °F 28.4 °F 93% 29.83 in 2.0 mi ENE 5.8 mph - 0.00 in Snow Light Snow
7:22 PM 30.2 °F 24.3 °F 28.4 °F 93% 29.83 in 1.8 mi NE 5.8 mph - 0.00 in Snow Light Snow
7:30 PM 30.2 °F 22.6 °F 26.6 °F 86% 29.83 in 1.2 mi NE 8.1 mph - 0.01 in Snow Light Snow
7:56 PM 30.0 °F 21.7 °F 28.0 °F 92% 29.86 in 1.0 mi NE 9.2 mph - 0.02 in Snow Light Snow
8:25 PM 30.2 °F 20.8 °F 28.4 °F 93% 29.83 in 2.0 mi NE 11.5 mph - 0.02 in Snow Light Snow
8:45 PM 28.4 °F 19.7 °F 26.6 °F 93% 29.83 in 1.2 mi NNE 9.2 mph - 0.02 in Snow Light Snow
8:50 PM 28.4 °F 19.1 °F 26.6 °F 93% 29.84 in 0.8 mi NE 10.4 mph - 0.03 in Snow Light Snow
8:56 PM 28.9 °F 20.4 °F 27.0 °F 92% 29.88 in 0.8 mi NNE 9.2 mph - 0.03 in Snow Light Snow
9:45 PM 28.4 °F 19.7 °F 26.6 °F 93% 29.84 in 0.2 mi NE 9.2 mph - 0.07 in Fog , Snow Heavy Snow
9:56 PM 28.0 °F 18.1 °F 26.1 °F 92% 29.87 in 0.5 mi NE 11.5 mph - 0.08 in Fog , Snow Snow
10:11 PM 28.4 °F 19.7 °F 26.6 °F 93% 29.84 in 0.8 mi NE 9.2 mph - 0.02 in Snow Light Snow
10:33 PM 26.6 °F 15.7 °F 24.8 °F 93% 29.85 in 1.0 mi NE 12.7 mph - 0.03 in Snow Light Snow
10:41 PM 26.6 °F 17.5 °F 24.8 °F 93% 29.85 in 0.8 mi NE 9.2 mph - 0.03 in Snow Light Snow
10:56 PM 27.0 °F 18.0 °F 25.0 °F 92% 29.89 in 0.5 mi NE 9.2 mph - 0.05 in Fog , Snow Snow
11:25 PM 26.6 °F 17.5 °F 24.8 °F 93% 29.85 in 1.0 mi NNE 9.2 mph - 0.01 in Snow Light Snow
11:34 PM 26.6 °F 19.1 °F 24.8 °F 93% 29.85 in 0.8 mi NNE 6.9 mph - 0.02 in Snow Light Snow
11:47 PM 26.6 °F 18.2 °F 24.8 °F 93% 29.85 in 1.0 mi NNE 8.1 mph - 0.02 in Snow Light Snow